Regional Weather Roundup
Issued by NWS Sterling, VA

Home | Current Version | Previous Version | Text Only | Print | Product List | Glossary Off
Versions: 1 2 3 4 5 6 7 8 9 10 11 12 13 14 15 16 17 18 19 20 21 22 23 24 25 26 27 28 29 30 31 32 33 34 35 36 37 38 39 40 41 42 43 44 45 46 47 48 49 50

000
ASUS41 KLWX 041710
RWRLWX

REGIONAL WEATHER ROUNDUP
NATIONAL WEATHER SERVICE BALTIMORE MD/WASHINGTON DC
100 PM EDT FRI SEP 04 2015

Note: "FAIR" indicates few or no clouds below 12,000 feet
with no significant weather and/or obstructions to visibility.
 TC=TEMPERATURE CELSIUS

 * =Non NWS site. Station does not report precipitation (e.g. rain,
    snow, etc.), thunder, or fog.

DCZ001-MDZ009-015-VAZ040>042-051-053>054-041800-
WASHINGTON METRO

CITY           SKY/WX    TMP DP  RH WIND       PRES   REMARKS
WASHINGTON NAT MOSUNNY   91  70  49 E7        30.02F HX  96
DULLES         MOSUNNY   90  69  50 E8        30.03F HX  94
ANDREWS AFB    MOSUNNY   89  69  52 E13       30.02F HX  93
FT BELVOIR     SUNNY     90  70  51 VRB5      30.01F HX  96
QUANTICO       PTSUNNY   90  68  48 NE9       30.01F HX  94
COLLEGE PARK*  SUNNY     90  68  48 E7        30.02S HX  93
LEESBURG*      MOSUNNY   90  72  55 N3        30.04F HX  96
MANASSAS*      MOSUNNY   90  70  51 NE9       30.02F HX  95
GAITHERSBURG*  MOSUNNY   90  70  51 E5        30.07S HX  95

$$

MDZ006>007-011-014-041800-
BALTIMORE METRO

CITY           SKY/WX    TMP DP  RH WIND       PRES   REMARKS
BWI AIRPORT    PTSUNNY   88  66  48 E9        30.03S HX  90
MD SCIENCE CTR   N/A     90  66  45 MISG      30.03S HX  92
MARTIN STATE   MOSUNNY   90  72  55 NE5       30.04F HX  96
ANNAPOLIS      MOSUNNY   84  73  69 E6        30.03S HAZE    HX  90
FORT MEADE*    SUNNY     88  68  51 E7        30.05S HX  91

$$

MDZ012-015-019>023-041800-
MARYLAND EASTERN SHORE

CITY           SKY/WX    TMP DP  RH WIND       PRES   REMARKS
OCEAN CITY     MOSUNNY   84  74  71 E10       30.03S HX  91
SALISBURY      MOSUNNY   88  66  48 E12       30.02S HX  90
BAY BRIDGE AP*   N/A     86  72  62 CALM      30.03S HX  92
CAMBRIDGE*     SUNNY     90  68  48 SE9       30.01F HX  93
EASTON*        MOSUNNY   90  68  48 SE9       30.05F HX  93

$$

MDZ017>025-041800-
SOUTHERN MARYLAND

CITY           SKY/WX    TMP DP  RH WIND       PRES   REMARKS
PATUXENT RIVER MOSUNNY   86  70  58 E8        30.01F HAZE    HX  90
ST INIGOES     SUNNY     87  70  56 NE8       30.00F HX  92
LEONARDTOWN*   NOT AVBL

$$

MDZ003>005-041800-
NORTH CENTRAL MARYLAND

CITY           SKY/WX    TMP DP  RH WIND       PRES   REMARKS
FREDERICK*     MOSUNNY   90  72  55 N7        30.06F HX  96
HAGERSTOWN APT MOSUNNY   89  67  47 VRB7      30.05F HX  92
WESTMINSTER*   MOSUNNY   84  68  58 NE5       30.06F

$$

MDZ501>502-041800-
WESTERN MARYLAND

CITY           SKY/WX    TMP DP  RH WIND       PRES   REMARKS
OAKLAND*       SUNNY     73  63  68 N3        30.19F
CUMBERLAND*    SUNNY     86  68  54 CALM      30.10F

$$

VAZ025>031-041800-
SHENANDOAH VALLEY

CITY           SKY/WX    TMP DP  RH WIND       PRES   REMARKS
WINCHESTER*    SUNNY     90  66  45 E7        30.05F HX  92
FRONT ROYAL*   FAIR      86  70  58 E5        30.05S HX  90
LURAY*         FAIR      82  68  61 E3        30.06S
NEW MARKET*    FAIR      81  71  72 E6        30.04S
STAUNTON*      MOSUNNY   83  69  63 E8        30.10R
WAYNESBORO*    PTSUNNY   84  68  58 NE9       30.10R

$$

WVZ021-048>050-054>055-041800-
EASTERN WEST VIRGINIA PANHANDLE

CITY           SKY/WX    TMP DP  RH WIND       PRES   REMARKS
MARTINSBURG    MOSUNNY   89  65  44 E13       30.05F HX  91
PETERSBURG*    MOSUNNY   85  70  60 E7        30.08F HAZE    HX  90

$$

VAZ036>039-050-041800-
CENTRAL FOOTHILLS

CITY           SKY/WX    TMP DP  RH WIND       PRES   REMARKS
CHARLOTTESVILL MOSUNNY   89  68  49 N8        30.04S HX  93
CULPEPER*      MOSUNNY   88  70  56 N5        30.04S HX  93
ORANGE*        PTSUNNY   88  70  55 N6        30.04S HX  92
GORDONSVILLE*  FAIR      90  70  51 E7        30.02F HX  95
WARRENTON*     FAIR      90  71  52 N6        30.03S HX  96

$$

VAZ055>057-041800-
NORTH AND CENTRAL PIEDMONT

CITY           SKY/WX    TMP DP  RH WIND       PRES   REMARKS
FREDERICKSBRG* MOSUNNY   88  69  52 NE7       30.00F HX  92
STAFFORD*      PTSUNNY   88  67  48 N3        30.05S HX  91

$$

NCZ024-NYZ072-PAZ021-071-VAZ022-071-041800-
OTHER REGIONAL OBSERVATIONS

CITY           SKY/WX    TMP DP  RH WIND       PRES   REMARKS
NEW YORK CITY  CLOUDY    82  67  60 NE6       30.13R
PHILADELPHIA   PTSUNNY   92  68  45 NE9G17    30.04S HX  96
PITTSBURGH     PTSUNNY   83  61  47 SW6       30.10F
ROANOKE        MOSUNNY   89  66  46 NE7       30.08F HX  91
RICHMOND       PTSUNNY   92  69  47 CALM      30.00F HX  97
RALEIGH        MOSUNNY   89  69  51 E3        30.01F HX  93

$$

ANZ530>537-041800-
MARINE OBSERVATIONS

STATION/POSITION TIME  TEMP    WIND        PRES
                       AIR SEA DIR/SP/G
                 (UTC) (F)     (DEG/KT/KT) (MB)
THOMAS PT LIGHT  NOT AVBL
BALT KEY BRIDGE  1600   83      70/  6/  7 1017.0R
COVE POINT       1600   80     360/  5/  6 1017.3R
LEWISETTA        1600   82 82   90/  7/  8 1016.1R
SOLOMONS ISLAND  1600      82                N/A
PINEY POINT      1641          140/  9/ 11   N/A

$$



USA.gov is the U.S. government's official web portal to all federal, state and local government web resources and services.